Weather in Rodnikovy

Russia / Primorsky Krai     45°09′53″N   133°23′38″E
temp.,
°C
wind,
m/s
gust,
m/s
humid.,
%
clouds,
%
prec.,
mm/h
press.,
hPa
HPBL,
m
17 june, thu
thu1701:00+14wsw23975 0.0 100781
04:00+13se2197100 0.0 100627
07:00+16se2395100 0.0 1006128
10:00+20ssw3573100 0.0 1006539
13:00+24sw4562100 0.0 10041066
16:00+23wsw5666100 0.0 1004786
19:00+19s2683100 0.0 1003376
22:00+15ssw1194100 0.0 100415
18 june, fri
fri1801:00+15w2293100 0.0 100252
04:00+13ssw1195100 0.0 100220
07:00+15se2389100 0.0 1001118
10:00+19sse3876100 0.1 1000643
13:00+17wsw3888100 0.4 1000388
16:00+16sw1596100 1.9 1000333
19:00+15se2796100 3.3 1001249
22:00+14se2496100 3.4 100295
19 june, sat
sat1901:00+14ese2296100 0.0 100147
04:00+14se2395100 0.0 100182
07:00+15ese2596100 0.2 1002221
10:00+15se3893100 0.4 1003465
13:00+15ese2593100 0.3 1003441
16:00+16ese2788100 0.3 1002574
19:00+17se2776100 0.0 1002483
22:00+14se2384100 0.0 100357
20 june, sun
sun2001:00+14sse2476100 0.0 1004121
04:00+13se2575100 0.0 1004194
07:00+12ese1487100 0.1 1005173
10:00+15se237299 0.2 1005561
13:00+13sse3481100 0.1 1006379
16:00+17s346365 0.1 1006910
19:00+14s257785 0.0 1007356
22:00+11sse1288100 0.0 100834
21 june, mon
mon2101:00+11se1181100 0.0 100928
04:00+9e1183100 0.0 100911
07:00+11e117592 0.0 101163
10:00+17ese125096 0.0 1010883
13:00+21sw1344100 0.0 10101691
16:00+21w2444100 0.0 10091727
19:00+20n256753 0.0 1009414
22:00+14ne128526 0.0 101011